Track SATELIOT_2 now! 10-day predictions SATELIOT_2 is classified as:
1 60534U 24149BU 26253.74631778 .00001499 00000-0 13658-3 0 9998 2 60534 97.6762 327.1263 0001776 111.2579 248.8832 14.96613747112768